Retour au catalogue

DGS 2-01

ActifScienceSSO
NORAD 65260·PAYLOAD·🇨🇳 China
Ce nom de satellite n'a pas encore été confirmé par des sources officielles.

Lancé Aug 19, 2025 depuis Jiuquan Satellite Launch Center

Loading…

Prochains Passages (prochaines 24 heures)

TLE

FraisSource: Space-Track

Époque: Sep 14, 2026, 14:01 UTC

1 65260U 25180B   26257.58452609  .00002918  00000-0  15499-3 0  9997
2 65260  97.5389  24.0740 0014663  20.2482 339.9329 15.16023214 59206

Suivez DGS 2-01 en temps réel avec AllMySat

Download on the App Store